Zurück zum Katalog

ARIANE 44LP DEB

LostHEO
NORAD 48351·DEBRIS·🇫🇷 France

Gestartet Dec 11, 1988 von Guiana Space Centre

Loading…

Nächste Überflüge (nächste 24 Stunden)

TLE

VeraltetSource: Space-Track

Epoche: Jan 22, 2025, 00:56 UTC

1 48351U 88109X   25022.03929840  .00001069  00000-0  36153-2 0  9999
2 48351   7.4816 258.4657 6911856 282.1999  13.6309  2.63670480 88871

Verfolge ARIANE 44LP DEB in Echtzeit mit AllMySat

Download on the App Store